sat.trackr.live / text

‹ back to catalog

2022-056B

NORAD 52717 · 2022-056B

PAYLOAD ACTIVE UNKNOWN

§ Identity

Operator
Country
PRC
Launch date
2022-05-20
Launch site
JSC
Launch vehicle
Mass (kg)
RCS (m²)

External: N2YO · Heavens-Above · Gunter

§ Orbital elements

Epoch: 2026-05-25T04:14:44.060640Z

Period
108.30 min
Inclination
86.0058°
Eccentricity
0.0046429
Mean motion
13.29587663 rev/d
Perigee alt
1,113.4 km
Apogee alt
1,183.3 km
Semi-major
7,526.5 km
B*
4.9997e-4
RAAN
107.8846°
Arg perigee
101.8370°
Mean anomaly
258.7979°
Rev number
19,525

§ Raw data

2022-056B1 52717U 22056B   26145.17689885  .00000249  00000+0  49997-3 0  99922 52717  86.0058 107.8846 0046429 101.8370 258.7979 13.29587663195259

JSON: /api/v1/satellites/52717 · /tle

For live sub-satellite position, see the globe view (requires WebGL).

§ Visibility from observer

Set your observer location to see the next 7 days of passes ≥ 10°. The values pass through the URL so the page stays shareable.

No JS? Fill the form by hand. The geolocation button needs JavaScript.